Regional Weather Roundup
Issued by NWS Green Bay, WI

Home | Current Version | Previous Version | Graphics & Text | Print | Product List | Glossary Off
Versions: 1 2 3 4 5 6 7 8 9 10 11 12 13 14 15 16 17 18 19 20 21 22 23 24 25 26 27 28 29 30 31 32 33 34 35 36 37 38 39 40 41 42 43 44 45 46 47 48 49 50

000
ASUS43 KGRB 221959
RWRGRB

NORTH-CENTRAL AND NORTHEAST WISCONSIN REGIONAL WEATHER ROUNDUP
NATIONAL WEATHER SERVICE GREEN BAY WI
300 PM CDT MON SEP 22 2014

WIZ005-009-010>012-018-019-222100-
NORTH CENTRAL WISCONSIN

CITY           SKY/WX    TMP DP  RH WIND       PRES   REMARKS
IRONWOOD       MOSUNNY   64  52  63 SW14      30.11F
MANITOWISH WTR NOT AVBL
ARBOR VITAE    NOT AVBL
EAGLE RIVER    NOT AVBL
LAND O LAKES   NOT AVBL
RHINELANDER    SUNNY     65  47  52 W14       30.18F
PHILLIPS       NOT AVBL
ANTIGO         NOT AVBL
TOMAHAWK       NOT AVBL
MERRILL        NOT AVBL
$$

WIZ013-073-222100-
NORTHEAST WISCONSIN

CITY           SKY/WX    TMP DP  RH WIND       PRES   REMARKS
IRON MOUNTAIN  MOSUNNY   67  47  48 W10       30.12F
MARINETTE      MOSUNNY   66  46  48 W12       30.13F
$$

WIZ017-030-035>037-045-222100-
CENTRAL WISCONSIN

CITY           SKY/WX    TMP DP  RH WIND       PRES   REMARKS
MEDFORD        NOT AVBL
WAUSAU         SUNNY     65  48  54 W13       30.18F
MOSINEE        MOSUNNY   64  50  59 W12G17    30.20F
MARSHFIELD     MOSUNNY   68  51  54 NW12      30.20F
WISC RAPIDS    MOSUNNY   68  48  48 W13       30.21F
STEVENS POINT  NOT AVBL
WAUPACA        NOT AVBL
SHAWANO        NOT AVBL
CLINTONVILLE   NOT AVBL
$$

WIZ038-039-048-051-222100-
FOX VALLEY

CITY           SKY/WX    TMP DP  RH WIND       PRES   REMARKS
NWS GREEN BAY  MOSUNNY   67  48  50 W10       30.18F
APPLETON       PTSUNNY   66  45  45 W12       30.20F
OSHKOSH        MOSUNNY   67  48  50 W8        30.20F
FOND DU LAC    MOSUNNY   68  47  46 W13       30.21F
$$

WIZ022-050-052-222100-
EAST CENTRAL WISCONSIN

CITY           SKY/WX    TMP DP  RH WIND       PRES   REMARKS
STURGEON BAY   SUNNY     64  46  52 SW14G20   30.17F
MANITOWOC      NOT AVBL
SHEBOYGAN      SUNNY     67  44  43 NW12      30.21F
$$

LMZ563-521-522-541>543-222100-
LAKESHORE

STATION/POSITION TIME  TEMP    WIND        PRES    VSBY  WAVE
                       AIR SEA DIR/SP/G                  HT/PER
                 (UTC) (F)     (DEG/KT/KT) (MB)    (MI)  (FT/S)
SHEBOYGAN LKSHOR 1900   63 56  300/ 11/ 13 1023.6F
KEWAUNEE LKSHORE 1900   65     250/  8/ 10 1021.3S
NORTHPORT PIER   1900   63     230/  5/ 10 1021.0F
N MID LAKE BUOY  1900   56 57  230/ 14/ 17 1021.1F         2/ 3
CHAMBERS ISLAND  1900   62     190/  6/ 13 1020.7F
MENOMINEE LKSHOR 1900   66     250/  8/ 17 1021.3F
$$



USA.gov is the U.S. government's official web portal to all federal, state and local government web resources and services.